GW5982 Weather Reports


Display with metric or nautical units.
time (UTC)temp
F
wind
direction
speed
MPH
gust
MPH
rain 1hr
in
rain 24hr
in
rain mn
in
humidity
%
barometer
mb
20260508111018 46 300 5.0 9.0 0.00 0.04 0.00 86 1002.6
20260508110503 45 266 6.0 8.0 0.00 0.05 0.00 86 1002.5
20260508110018 45 242 2.0 5.0 0.00 0.05 0.00 87 1002.6
20260508105510 45 243 4.0 6.0 0.00 0.05 0.00 87 1002.6
20260508105011 44 281 3.0 8.0 0.00 0.06 0.00 87 1002.6
20260508104522 45 300 3.0 8.0 0.00 0.06 0.00 87 1002.5
20260508104008 45 286 2.0 7.0 0.00 0.06 0.00 88 1002.5
20260508103508 45 271 2.0 7.0 0.00 0.06 0.00 88 1002.5
20260508103032 44 275 2.0 5.0 0.00 0.06 0.00 89 1002.5
20260508102510 44 283 3.0 6.0 0.00 0.06 0.00 90 1002.6
20260508102012 43 278 4.0 7.0 0.00 0.06 0.00 90 1002.5
20260508101530 42 232 5.0 7.0 0.00 0.06 0.00 90 1002.6
20260508101011 42 232 3.0 5.0 0.00 0.06 0.00 90 1002.5
20260508100511 42 239 3.0 4.0 0.00 0.06 0.00 90 1002.4
20260508100029 42 270 3.0 4.0 0.00 0.06 0.00 90 1002.3
20260508095510 43 238 1.0 4.0 0.00 0.07 0.00 90 1002.2
20260508095011 42 268 2.0 4.0 0.00 0.07 0.00 90 1002.1
20260508094516 42 282 1.0 4.0 0.00 0.07 0.00 90 1002.0
20260508094010 42 294 1.0 5.0 0.00 0.07 0.00 91 1002.1
20260508093509 42 274 3.0 5.0 0.00 0.07 0.00 91 1002.1
20260508093020 42 250 4.0 5.0 0.00 0.07 0.00 91 1002.2
20260508092509 41 234 3.0 5.0 0.00 0.07 0.00 90 1002.2
20260508092009 42 235 3.0 5.0 0.00 0.07 0.00 90 1002.3
20260508091534 42 241 2.0 5.0 0.00 0.07 0.00 90 1002.2
20260508091008 42 236 2.0 5.0 0.00 0.07 0.00 90 1002.2
20260508090511 42 248 3.0 5.0 0.00 0.07 0.00 90 1002.1
20260508090036 42 237 4.0 5.0 0.00 0.07 0.00 90 1002.1
20260508085509 42 259 2.0 4.0 0.00 0.07 0.00 90 1002.0
20260508085008 42 243 2.0 4.0 0.00 0.07 0.00 90 1002.0
20260508084528 42 265 3.0 4.0 0.00 0.07 0.00 90 1001.9
20260508084012 42 259 3.0 4.0 0.00 0.07 0.00 90 1002.1
20260508083512 42 280 3.0 5.0 0.00 0.07 0.00 90 1002.0
20260508083028 42 259 3.0 5.0 0.00 0.07 0.00 90 1002.0
20260508082511 42 243 3.0 4.0 0.00 0.07 0.00 90 1001.9
20260508082006 42 269 3.0 4.0 0.00 0.07 0.00 91 1001.8
20260508081524 42 260 2.0 3.0 0.00 0.07 0.00 90 1001.8
20260508081008 42 236 1.0 2.0 0.00 0.07 0.00 91 1001.8
20260508080510 42 256 0.0 4.0 0.00 0.07 0.00 91 1001.9
20260508080034 42 253 2.0 5.0 0.00 0.07 0.00 91 1002.0
20260508075509 41 278 3.0 5.0 0.00 0.07 0.00 91 1001.9
20260508075009 41 247 4.0 5.0 0.00 0.07 0.00 91 1001.9
20260508074530 41 228 0.0 3.0 0.00 0.07 0.00 91 1001.9
20260508074008 41 210 1.0 4.0 0.00 0.07 0.00 91 1001.9
20260508073511 41 245 2.0 4.0 0.00 0.07 0.00 91 1001.9
20260508073014 41 259 2.0 4.0 0.00 0.07 0.00 91 1002.0
20260508072504 41 258 2.0 5.0 0.00 0.07 0.00 92 1002.0
20260508072005 41 249 3.0 5.0 0.00 0.08 0.00 92 1002.0
20260508071524 41 258 2.0 4.0 0.00 0.08 0.00 92 1001.9
20260508071013 41 253 1.0 2.0 0.00 0.07 0.00 91 1001.9
20260508070510 41 217 1.0 2.0 0.00 0.07 0.00 92 1002.0
20260508070024 41 168 1.0 2.0 0.00 0.07 0.00 92 1002.0
20260508065509 41 207 1.0 3.0 0.00 0.07 0.00 92 1001.9
20260508065014 41 240 2.0 4.0 0.00 0.07 0.00 92 1001.9
20260508064506 41 272 2.0 5.0 0.00 0.07 0.00 92 1001.9
20260508064003 41 261 3.0 6.0 0.00 0.07 0.00 92 1002.0
20260508063504 41 236 4.0 6.0 0.00 0.07 0.00 92 1002.2
20260508063010 41 250 4.0 6.0 0.00 0.07 0.00 92 1002.3
20260508062507 41 238 3.0 5.0 0.00 0.07 0.00 92 1002.2
20260508062006 41 261 3.0 5.0 0.00 0.07 0.00 93 1002.2
20260508061515 41 270 4.0 6.0 0.00 0.07 0.00 93 1002.1
20260508061005 41 257 4.0 6.0 0.00 0.07 0.00 93 1002.1
20260508060507 41 262 4.0 6.0 0.00 0.07 0.00 93 1002.2
20260508060021 41 269 3.0 6.0 0.00 0.07 0.00 93 1002.3
20260508055507 41 250 4.0 6.0 0.00 0.07 0.00 93 1002.2
20260508055007 41 251 3.0 6.0 0.00 0.08 0.00 93 1002.2
20260508054525 41 256 3.0 7.0 0.00 0.08 0.00 93 1002.3
20260508054010 41 259 4.0 7.0 0.00 0.09 0.00 93 1002.3
20260508053509 41 253 5.0 10.0 0.00 0.09 0.00 93 1002.3
20260508053027 41 255 4.0 10.0 0.00 0.09 0.00 93 1002.2
20260508052504 41 242 5.0 8.0 0.00 0.09 0.00 93 1002.3
20260508052004 41 201 4.0 5.0 0.00 0.09 0.00 93 1002.2
20260508051512 41 233 4.0 5.0 0.00 0.09 0.00 93 1002.2
20260508051004 41 214 3.0 5.0 0.00 0.10 0.00 93 1002.1
20260508050505 41 232 3.0 6.0 0.00 0.10 0.00 93 1002.2
20260508050016 41 213 2.0 6.0 0.00 0.10 0.00 93 1002.1
20260508045512 41 210 4.0 6.0 0.00 0.10 0.00 93 1002.1
20260508045007 41 203 3.0 6.0 0.00 0.10 0.00 93 1002.0
20260508044521 41 255 2.0 5.0 0.00 0.10 0.00 93 1002.1
20260508044009 41 224 3.0 5.0 0.00 0.10 0.00 93 1002.0
20260508043509 41 214 4.0 5.0 0.00 0.10 0.00 93 1002.1
20260508043022 41 172 2.0 4.0 0.00 0.10 0.00 93 1002.1
20260508042511 42 155 1.0 4.0 0.00 0.10 0.00 93 1002.2
20260508042010 42 226 3.0 4.0 0.00 0.10 0.00 93 1002.2
20260508041529 42 238 2.0 4.0 0.00 0.10 0.00 93 1002.2
20260508041010 42 221 2.0 6.0 0.00 0.10 0.00 93 1001.9
20260508040512 42 252 1.0 12.0 0.00 0.10 0.00 92 1001.9
20260508040013 42 215 4.0 12.0 0.00 0.10 0.00 92 1002.1
20260508035503 42 232 4.0 12.0 0.00 0.10 0.00 92 1002.0
20260508035009 43 214 4.0 8.0 0.00 0.10 0.00 92 1002.1
20260508034518 43 161 5.0 8.0 0.00 0.10 0.00 92 1002.1
20260508034008 43 155 4.0 8.0 0.00 0.10 0.00 92 1002.0
20260508033510 43 172 4.0 6.0 0.00 0.10 0.00 92 1001.9
20260508033022 43 169 3.0 5.0 0.00 0.10 0.00 93 1001.9
20260508032509 43 152 4.0 5.0 0.00 0.10 0.00 93 1002.1
20260508032013 43 156 4.0 5.0 0.00 0.10 0.00 93 1002.1
20260508031524 43 153 3.0 6.0 0.00 0.10 0.00 93 1002.2
20260508031011 43 154 4.0 6.0 0.00 0.10 0.00 93 1002.2
20260508030511 43 162 3.0 4.0 0.00 0.10 0.00 93 1002.2
20260508030028 43 153 3.0 5.0 0.00 0.10 0.00 92 1002.0
20260508025510 43 159 3.0 5.0 0.00 0.10 0.10 92 1002.1
20260508025013 43 162 3.0 6.0 0.00 0.10 0.10 92 1002.1
20260508024537 43 153 4.0 6.0 0.00 0.10 0.10 92 1002.1
20260508024004 44 158 4.0 5.0 0.00 0.10 0.10 92 1002.0
20260508023508 44 130 3.0 6.0 0.00 0.10 0.10 92 1002.1
20260508023016 44 152 3.0 6.0 0.00 0.10 0.10 92 1002.1
20260508022507 44 164 4.0 6.0 0.00 0.10 0.10 92 1002.0
20260508022009 44 144 4.0 6.0 0.00 0.10 0.10 92 1002.1
20260508021532 44 165 3.0 6.0 0.00 0.10 0.10 92 1002.2
20260508021011 45 183 4.0 6.0 0.00 0.10 0.10 91 1002.2
20260508020506 45 214 3.0 6.0 0.00 0.10 0.10 91 1002.2
20260508020026 45 193 4.0 8.0 0.00 0.10 0.10 91 1002.2
20260508015507 45 192 4.0 8.0 0.00 0.10 0.10 91 1002.2
20260508015010 45 162 4.0 6.0 0.00 0.10 0.10 91 1001.9
20260508014526 46 153 4.0 6.0 0.00 0.10 0.10 91 1002.1
20260508014011 46 140 4.0 5.0 0.00 0.10 0.10 90 1002.1
20260508013512 46 156 3.0 4.0 0.00 0.10 0.10 90 1002.1
20260508013038 47 159 3.0 4.0 0.00 0.10 0.10 90 1002.1
20260508012511 47 157 2.0 6.0 0.00 0.10 0.10 90 1002.1
20260508012008 47 169 3.0 6.0 0.00 0.10 0.10 89 1001.9
20260508011519 47 159 2.0 4.0 0.00 0.10 0.10 89 1001.8
20260508011010 47 176 2.0 4.0 0.00 0.10 0.10 89 1002.1
20260508010509 48 124 3.0 5.0 0.00 0.10 0.10 88 1002.1
20260508010025 48 159 3.0 5.0 0.00 0.10 0.10 88 1002.1
20260508005513 48 140 3.0 4.0 0.00 0.10 0.10 87 1002.0
20260508005009 48 139 2.0 4.0 0.00 0.10 0.10 85 1001.9
20260508004535 49 151 2.0 3.0 0.00 0.10 0.10 85 1001.8
20260508004010 49 150 2.0 3.0 0.00 0.10 0.10 85 1001.9
20260508003512 49 153 2.0 4.0 0.00 0.10 0.10 85 1002.1
20260508003026 49 143 2.0 4.0 0.00 0.10 0.10 85 1002.1
20260508002508 49 156 2.0 3.0 0.00 0.10 0.10 84 1002.0
20260508002013 50 160 2.0 3.0 0.00 0.10 0.10 84 1001.8
20260508001530 50 134 1.0 2.0 0.00 0.10 0.10 84 1001.9
20260508001009 50 139 1.0 2.0 0.00 0.10 0.10 84 1001.7
20260508000515 50 151 1.0 2.0 0.00 0.10 0.10 84 1001.8
20260508000021 50 149 0.0 2.0 0.00 0.10 0.10 83 1001.8
20260507235510 50 148 1.0 2.0 0.00 0.10 0.10 83 1001.6
20260507235008 51 138 1.0 2.0 0.00 0.10 0.10 82 1001.6
20260507234525 51 132 0.0 2.0 0.00 0.10 0.10 81 1001.6
20260507234010 51 139 1.0 3.0 0.00 0.10 0.10 80 1001.5
20260507233509 52 148 1.0 3.0 0.00 0.10 0.10 80 1001.3
20260507233034 52 147 1.0 3.0 0.00 0.10 0.10 78 1001.4
20260507232510 53 122 1.0 3.0 0.00 0.10 0.10 77 1001.3
20260507232012 53 96 1.0 2.0 0.00 0.10 0.10 76 1001.5
20260507231525 54 109 1.0 2.0 0.00 0.10 0.10 75 1001.6
20260507231012 54 105 0.0 3.0 0.00 0.10 0.10 74 1001.6
20260507230510 54 97 0.0 3.0 0.00 0.10 0.10 73 1001.5
20260507230029 55 110 1.0 3.0 0.00 0.10 0.10 73 1001.7
20260507225510 55 94 1.0 4.0 0.00 0.10 0.10 73 1001.6
20260507225009 55 49 1.0 4.0 0.00 0.10 0.10 74 1001.6
20260507224531 55 70 1.0 4.0 0.00 0.10 0.10 75 1001.6
20260507224010 54 34 3.0 4.0 0.00 0.10 0.10 74 1001.6
20260507223512 54 21 1.0 4.0 0.00 0.10 0.10 76 1001.5
20260507223022 54 86 2.0 4.0 0.00 0.10 0.10 77 1001.6
20260507222509 53 8 2.0 4.0 0.00 0.10 0.10 78 1001.5
20260507222003 53 53 1.0 4.0 0.00 0.10 0.10 80 1001.5
20260507221517 53 44 1.0 4.0 0.00 0.10 0.10 81 1001.6
20260507221010 53 27 2.0 7.0 0.00 0.10 0.10 81 1001.6
20260507220507 53 37 3.0 7.0 0.00 0.10 0.10 80 1001.4
20260507220013 53 15 3.0 7.0 0.00 0.10 0.10 80 1001.4
20260507215507 53 47 4.0 8.0 0.00 0.10 0.10 80 1001.3
20260507215007 53 34 4.0 9.0 0.00 0.10 0.10 80 1001.4
20260507214518 53 18 4.0 9.0 0.00 0.10 0.10 80 1001.4
20260507214011 53 356 4.0 9.0 0.00 0.10 0.10 80 1001.3
20260507213516 54 6 5.0 10.0 0.00 0.10 0.10 79 1001.1
20260507213025 54 350 6.0 10.0 0.00 0.10 0.10 78 1001.1
20260507212510 54 13 6.0 9.0 0.00 0.10 0.10 77 1001.0
20260507212011 54 24 3.0 8.0 0.00 0.10 0.10 77 1001.1
20260507211526 54 27 5.0 8.0 0.00 0.10 0.10 76 1001.2
20260507211013 55 358 5.0 9.0 0.00 0.10 0.10 76 1001.0
20260507210510 56 34 5.0 10.0 0.00 0.10 0.10 74 1000.9
20260507210023 57 337 7.0 10.0 0.00 0.10 0.10 71 1000.9
20260507205505 57 330 4.0 9.0 0.00 0.10 0.10 70 1000.8
20260507205006 57 317 5.0 9.0 0.00 0.10 0.10 70 1000.8
20260507204516 56 312 2.0 7.0 0.00 0.10 0.10 73 1000.8
20260507204011 56 302 3.0 6.0 0.00 0.10 0.10 72 1000.7
20260507203507 56 297 2.0 4.0 0.00 0.10 0.10 73 1000.6
20260507203020 56 333 0.0 5.0 0.00 0.10 0.10 74 1000.5
20260507202506 56 300 3.0 5.0 0.00 0.10 0.10 73 1000.6
20260507202006 56 301 3.0 7.0 0.00 0.10 0.10 73 1000.6
20260507201523 57 321 3.0 9.0 0.00 0.10 0.10 73 1000.6
20260507201009 57 324 4.0 9.0 0.00 0.10 0.10 74 1000.5
20260507200510 56 309 6.0 9.0 0.00 0.10 0.10 74 1000.4
20260507200028 56 347 2.0 4.0 0.00 0.10 0.10 76 1000.4
20260507195512 56 249 2.0 4.0 0.00 0.10 0.10 77 1000.3
20260507195010 55 350 1.0 3.0 0.00 0.10 0.10 78 1000.3
20260507194513 55 292 1.0 4.0 0.00 0.10 0.10 79 1000.3
20260507194006 54 317 2.0 4.0 0.00 0.10 0.10 80 1000.4
20260507193506 54 3 2.0 5.0 0.00 0.10 0.10 80 1000.4
20260507193016 54 4 2.0 6.0 0.00 0.10 0.10 80 1000.3
20260507192507 54 334 2.0 9.0 0.00 0.10 0.10 80 1000.3
20260507192007 54 278 4.0 9.0 0.00 0.10 0.10 79 1000.4
20260507191520 55 289 6.0 11.0 0.00 0.10 0.10 77 1000.5
20260507191008 56 295 6.0 11.0 0.00 0.10 0.10 76 1000.4
20260507190508 57 248 6.0 11.0 0.00 0.10 0.10 75 1000.4
20260507190026 56 272 3.0 11.0 0.00 0.10 0.10 75 1000.4
20260507185509 56 240 4.0 11.0 0.00 0.10 0.10 77 1000.4
20260507185013 56 246 5.0 14.0 0.00 0.10 0.10 77 1000.3
20260507184524 56 283 8.0 14.0 0.00 0.10 0.10 76 1000.3
20260507184010 56 264 9.0 14.0 0.00 0.10 0.10 76 1000.4
20260507183511 56 242 6.0 12.0 0.00 0.10 0.10 78 1000.4
20260507183033 56 202 7.0 12.0 0.00 0.10 0.10 78 1000.5
20260507182507 55 256 5.0 12.0 0.00 0.10 0.10 80 1000.5
20260507182004 55 262 7.0 12.0 0.00 0.10 0.10 79 1000.4
20260507181518 55 276 4.0 9.0 0.00 0.10 0.10 83 1000.4
20260507181011 54 239 6.0 9.0 0.00 0.10 0.10 82 1000.6
20260507180509 54 244 5.0 9.0 0.00 0.10 0.10 83 1000.6
20260507180024 53 265 5.0 11.0 0.00 0.10 0.10 84 1000.6
20260507175506 53 252 6.0 11.0 0.00 0.10 0.10 84 1000.7
20260507175009 53 226 6.0 10.0 0.00 0.10 0.10 86 1000.8
20260507174533 52 294 7.0 10.0 0.00 0.10 0.10 86 1000.8
20260507174010 52 220 3.0 11.0 0.00 0.10 0.10 88 1000.4
20260507173508 51 241 7.0 11.0 0.00 0.10 0.10 88 1000.8
20260507173034 51 248 7.0 10.0 0.00 0.10 0.10 89 1001.0
20260507172509 51 307 1.0 9.0 0.00 0.10 0.10 90 1000.6
20260507172014 51 258 5.0 12.0 0.00 0.10 0.10 90 1001.0
20260507171528 51 252 6.0 12.0 0.00 0.10 0.10 90 1001.3
20260507171012 50 267 8.0 12.0 0.00 0.10 0.10 90 1001.1
20260507170507 51 259 8.0 12.0 0.00 0.10 0.10 91 1001.2
20260507170021 51 237 6.0 10.0 0.00 0.10 0.10 92 1001.0
20260507165506 51 242 5.0 8.0 0.00 0.10 0.10 92 1000.9
20260507165010 51 270 4.0 10.0 0.00 0.10 0.10 92 1000.9
20260507164522 51 259 5.0 10.0 0.00 0.10 0.10 92 1000.8
20260507164011 51 253 6.0 9.0 0.00 0.10 0.10 92 1001.0
20260507163508 51 288 6.0 11.0 0.00 0.10 0.10 92 1000.8
20260507163024 51 245 8.0 11.0 0.00 0.10 0.10 92 1001.3
20260507162510 51 277 6.0 12.0 0.00 0.10 0.10 92 1001.2
20260507162010 51 281 5.0 15.0 0.00 0.10 0.10 92 1001.2
20260507161532 51 273 6.0 16.0 0.00 0.10 0.10 92 1001.2
20260507161008 51 281 9.0 16.0 0.00 0.10 0.10 92 1001.4
20260507160510 51 18 5.0 9.0 0.00 0.10 0.10 92 1001.3
20260507160029 51 264 4.0 7.0 0.00 0.10 0.10 92 1001.2
20260507155513 51 171 3.0 9.0 0.00 0.10 0.10 92 1000.9
20260507155011 51 284 4.0 10.0 0.00 0.10 0.10 92 1001.7
20260507154529 51 243 6.0 10.0 0.00 0.10 0.10 92 1001.8
20260507154010 51 226 4.0 8.0 0.00 0.10 0.10 92 1001.7
20260507153507 51 305 4.0 12.0 0.00 0.10 0.10 92 1001.8
20260507153037 51 257 6.0 12.0 0.00 0.10 0.10 92 1002.0
20260507152508 51 240 4.0 7.0 0.01 0.10 0.10 92 1001.9
20260507152009 51 233 4.0 7.0 0.01 0.10 0.10 92 1001.7
20260507151526 51 229 3.0 9.0 0.02 0.10 0.10 92 1001.2
20260507151008 51 191 5.0 9.0 0.03 0.10 0.10 92 1001.5
20260507150509 51 200 5.0 9.0 0.03 0.10 0.10 92 1001.8
20260507150030 52 219 5.0 10.0 0.03 0.10 0.10 92 1002.0
20260507145508 52 234 4.0 10.0 0.03 0.10 0.10 92 1002.5
20260507145011 52 226 4.0 10.0 0.03 0.09 0.09 92 1002.4
20260507144526 52 214 5.0 11.0 0.03 0.09 0.09 92 1002.2
20260507144012 52 212 4.0 11.0 0.03 0.09 0.09 92 1001.9
20260507143510 52 221 5.0 15.0 0.03 0.09 0.09 91 1001.9
20260507143027 52 243 7.0 15.0 0.03 0.09 0.09 91 1002.3
20260507142506 52 185 5.0 14.0 0.02 0.08 0.08 91 1002.6
20260507142009 52 280 6.0 13.0 0.02 0.08 0.08 91 1002.3
20260507141523 53 266 7.0 12.0 0.01 0.07 0.07 91 1002.0
20260507141008 53 191 6.0 13.0 0.00 0.07 0.07 91 1001.7
20260507140507 53 232 7.0 13.0 0.00 0.07 0.07 91 1001.7
20260507140025 53 211 4.0 11.0 0.00 0.07 0.07 90 1001.7
20260507135508 53 236 5.0 13.0 0.00 0.06 0.06 90 1002.0
20260507135011 53 211 7.0 14.0 0.00 0.06 0.06 89 1001.8
20260507134526 53 245 10.0 14.0 0.00 0.06 0.06 89 1002.4
20260507134008 53 274 8.0 14.0 0.00 0.06 0.06 89 1002.4
20260507133513 53 220 8.0 17.0 0.00 0.06 0.06 88 1002.1
20260507133014 53 242 10.0 17.0 0.00 0.06 0.06 88 1002.2
20260507132505 54 246 10.0 17.0 0.00 0.06 0.06 87 1002.1
20260507132007 54 204 8.0 20.0 0.00 0.06 0.06 87 1001.8
20260507131508 54 184 10.0 20.0 0.00 0.06 0.06 87 1002.1
20260507131004 54 221 12.0 20.0 0.00 0.06 0.06 87 1002.1
20260507130505 54 257 11.0 21.0 0.00 0.06 0.06 87 1002.4
20260507130012 54 242 10.0 21.0 0.00 0.06 0.06 88 1002.5
20260507125505 54 252 8.0 15.0 0.00 0.06 0.06 89 1002.6
20260507125008 54 264 6.0 14.0 0.00 0.06 0.06 89 1002.4
20260507124511 54 215 7.0 15.0 0.00 0.06 0.06 89 1002.1
20260507124006 54 181 8.0 15.0 0.00 0.06 0.06 89 1002.1
20260507123504 54 197 9.0 15.0 0.00 0.06 0.06 89 1002.1
20260507123015 54 251 9.0 16.0 0.00 0.06 0.06 89 1001.8
20260507122504 54 251 10.0 16.0 0.00 0.06 0.06 89 1001.8
20260507122009 54 192 9.0 18.0 0.00 0.06 0.06 89 1002.2
20260507121518 54 217 12.0 20.0 0.00 0.06 0.06 89 1001.9
20260507121008 54 193 11.0 20.0 0.00 0.06 0.06 89 1001.8
20260507120511 54 211 8.0 20.0 0.00 0.06 0.06 89 1001.9
20260507120021 54 206 12.0 20.0 0.00 0.06 0.06 89 1002.0
20260507115504 54 192 11.0 20.0 0.00 0.06 0.06 89 1002.2
20260507115003 54 184 9.0 22.0 0.01 0.06 0.06 89 1001.9
20260507114508 54 185 12.0 25.0 0.01 0.06 0.06 89 1002.0
20260507114009 54 224 13.0 25.0 0.01 0.06 0.06 89 1002.0
20260507113504 54 218 12.0 21.0 0.01 0.06 0.06 89 1001.7
20260507113009 54 214 13.0 24.0 0.01 0.06 0.06 89 1001.4
20260507112505 54 200 11.0 24.0 0.01 0.06 0.06 90 1000.9
20260507112005 54 142 8.0 17.0 0.01 0.06 0.06 90 1000.7
20260507111516 54 219 11.0 16.0 0.01 0.06 0.06 91 1000.9